1281484827217,35.0873
1281484887217,35.0947
1281484947217,35.1479
1281485007217,35.1397
1281485067217,35.0521
1281485127217,34.9960
1281485187217,35.0204
1281485247217,35.0588
1281485307217,34.9757
1281485367217,35.0233
1281485427217,34.9960
1281485487217,35.0547
1281485547217,35.0251
1281485607217,35.0911
1281485667217,35.0250
1281485727217,35.0047
1281485787217,35.0226
1281485847217,35.0900
1281485907217,35.0300
1281485967217,35.0445
1281486027217,35.0751
1281486087217,35.1458
1281486147217,34.9863
1281486207217,35.0913
1281486267217,34.9819
1281486327217,35.0712
1281486387217,34.9607
1281486447217,35.0730
1281486507217,35.0141
1281486567217,34.9693
1281486627217,34.9640
1281486687217,34.9851
1281486747217,35.0761
1281486807217,34.9617
1281486867217,34.9872
1281486927217,34.9709
1281486987217,34.9555
1281487047217,34.9710
1281487107217,34.8585
1281487167217,34.9989
1281487227217,34.8844
1281487287217,35.0402
1281487347217,34.9572
1281487407217,34.9815
1281487467217,35.0034
1281487527217,35.0581
1281487587217,35.0065
1281487647217,35.0440
1281487707217,34.9959
1281487767217,35.0698
1281487827217,34.9552
1281487887217,34.9488
1281487947217,35.0465
1281488007217,35.0079
1281488067217,34.9323
1281488127217,35.0277
1281488187217,34.9279
1281488247217,34.9420
1281488307217,34.9358
1281488367217,34.9945
1281488427226,34.9490
1281488487226,34.8625
1281488547226,34.9996
1281488607226,34.9377
1281488667226,34.9072
1281488727226,34.9208
1281488787226,34.9170
1281488847226,34.9708
1281488907226,34.9217
1281488967226,34.9199
1281489027226,34.9350
1281489087226,34.8903
1281489147226,34.9488
1281489207226,34.9150
1281489267226,34.8240
1281489327226,34.8220
1281489387226,34.8482
1281489447226,34.8915
1281489507226,35.0277
1281489567226,34.9248
1281489627226,34.9771
1281489687226,34.8379
1281489747226,34.8083
1281489807226,34.8922
1281489867226,34.7680
1281489927226,34.8366
1281489987226,34.9321
1281490047226,34.8660
1281490107226,34.8074
1281490167226,34.8713
1281490227226,34.8052
1281490287226,34.8336
1281490347226,34.7539
1281490407226,34.8362
1281490467226,34.9725
1281490527226,34.8011
1281490587226,34.7589
1281490647226,34.7497
1281490707226,34.7732
1281490767226,34.6582
1281490827226,34.8210
1281490887226,34.6939
1281490947226,34.8003
1281491007226,34.7530
1281491067226,34.7281
1281491127226,34.7704
1281491187226,34.8603
1281491247226,34.7337
1281491307226,34.8824
1281491367226,34.7749
1281491427226,34.8550
1281491487226,34.7837
1281491547226,34.7154
1281491607226,34.8303
1281491667226,34.8001
1281491727226,34.8282
1281491787226,34.8540
1281491847226,34.6998
1281491907226,34.8431
1281491967226,34.6979
1281492027235,34.6508
1281492087235,34.7646
1281492147235,34.7430
1281492207235,34.6563
1281492267235,34.8281
1281492327235,34.7752
1281492387235,34.7803
1281492447235,34.7960
1281492507235,34.7522
1281492567235,34.6768
1281492627235,34.7614
1281492687235,34.6946
1281492747235,34.6994
1281492807235,34.7559
1281492867235,34.7269
1281492927235,34.7282
1281492987235,34.8432
1281493047235,34.7521
1281493107235,34.8726
1281493167235,34.7051
1281493227235,34.8104
1281493287235,34.8042
1281493347235,34.7979
1281493407235,34.7788
1281493467235,34.8012
1281493527235,34.8624
1281493587235,34.8518
1281493647235,34.8420
1281493707235,34.7847
1281493767235,34.8108
1281493827235,34.8316
1281493887235,34.7919
1281493947235,34.7270
1281494007235,34.8845
1281494067235,34.7729
1281494127235,34.7744
1281494187235,34.7017
1281494247235,34.9115
1281494307235,34.8145
1281494367235,34.7919
1281494427235,34.7055
1281494487235,34.7276
1281494547235,34.6548
1281494607235,34.7498
1281494667235,34.7226
1281494727235,34.7291
1281494787235,34.7510
1281494847235,34.6518
1281494907235,34.7915
1281494967235,34.8579
1281495027235,34.6351
1281495087235,34.6754
1281495147235,34.6487
1281495207235,34.6653
1281495267235,34.6979
1281495327235,34.5552
1281495387235,34.5765
1281495447235,34.6289
1281495507235,34.5703
1281495567235,34.7514
1281495627244,34.5299
1281495687244,34.5242
1281495747244,34.5882
1281495807244,34.6121
1281495867244,34.4704
1281495927244,34.5774
1281495987244,34.5927
1281496047244,34.6367
1281496107244,34.5860
1281496167244,34.6325
1281496227244,34.6534
1281496287244,34.5575
1281496347244,34.7157
1281496407244,34.6200
1281496467244,34.6236
1281496527244,34.5899
1281496587244,34.4751
1281496647244,34.5608
1281496707244,34.5441
1281496767244,34.6143
1281496827244,34.4482
1281496887244,34.5487
1281496947244,34.5967
1281497007244,34.5730
1281497067244,34.5515
1281497127244,34.5906
1281497187244,34.4522
1281497247244,34.5787
1281497307244,34.6214
1281497367244,34.6154
1281497427244,34.5701
1281497487244,34.5744
1281497547244,34.5855
1281497607244,34.5316
1281497667244,34.5507
1281497727244,34.5820
1281497787244,34.6243
1281497847244,34.5616
1281497907244,34.5410
1281497967244,34.5342
1281498027244,34.5110
1281498087244,34.6262
1281498147244,34.5925
1281498207244,34.4496
1281498267244,34.7029
1281498327244,34.5624
1281498387244,34.5696
1281498447244,34.5555
1281498507244,34.4124
1281498567244,34.4566
1281498627244,34.6421
1281498687244,34.5339
1281498747244,34.4963
1281498807244,34.5821
1281498867244,34.5149
1281498927244,34.5559
1281498987244,34.4537
1281499047244,34.5119
1281499107244,34.5068
1281499167244,34.4981
1281499227253,34.4963
1281499287253,34.5173
1281499347253,34.5672
1281499407253,34.5459
1281499467253,34.5211
1281499527253,34.5363
1281499587253,34.5403
1281499647253,34.6403
1281499707253,34.6352
1281499767253,34.6147
1281499827253,34.4732
1281499887253,34.4783
1281499947253,34.4195
1281500007253,34.6410
1281500067253,34.5911
1281500127253,34.5332
1281500187253,34.5915
1281500247253,34.4284
1281500307253,34.5230
1281500367253,34.4183
1281500427253,34.4707
1281500487253,34.3881
1281500547253,34.4776
1281500607253,34.4972
1281500667253,34.4758
1281500727253,34.4976
1281500787253,34.4646
1281500847253,34.3786
1281500907253,34.4076
1281500967253,34.4899
1281501027253,34.4731
1281501087253,34.4825
1281501147253,34.4757
1281501207253,34.5722
1281501267253,34.3261
1281501327253,34.3841
1281501387253,34.4697
1281501447253,34.3587
1281501507253,34.4267
1281501567253,34.3410
1281501627253,34.4518
1281501687253,34.3341
1281501747253,34.3936
1281501807253,34.3931
1281501867253,34.3435
1281501927253,34.3699
1281501987253,34.3193
1281502047253,34.4063
1281502107253,34.3362
1281502167253,34.3969
1281502227253,34.2919
1281502287253,34.3836
1281502347253,34.3292
1281502407253,34.3890
1281502467253,34.3075
1281502527253,34.3589
1281502587253,34.2993
1281502647253,34.3313
1281502707253,34.4138
1281502767253,34.2410
1281502827262,34.4100
1281502887262,34.3300
1281503427262,34.3973
1281503487262,34.3206
1281503547262,34.3847
1281503607262,34.3830
1281503667262,34.3200
1281503727262,34.4255
1281503787262,34.2895
1281503847262,34.4029
1281503907262,34.4048
1281503967262,34.3350
1281504027262,34.3361
1281504087262,34.4307
1281504147262,34.3695
1281504207262,34.4773
1281504267262,34.4296
1281504327262,34.4993
1281504387262,34.4524
1281504447262,34.4370
1281504507262,34.4046
1281504567262,34.5142
1281504627262,34.4773
1281504687262,34.5022
1281504747262,34.4390
1281504807262,34.5500
1281504867262,34.4113
1281504927262,34.5315
1281504987262,34.4439
1281505047262,34.4683
1281505107262,34.3432
1281505167262,34.4220
1281505227262,34.4712
1281505287262,34.5610
1281505347262,34.5402
1281505407262,34.4840
1281505467262,34.4308
1281505527262,34.4855
1281505587262,34.4206
1281505647262,34.4482
1281505707262,34.5394
1281505767262,34.5342
1281505827262,34.4147
1281505887262,34.5186
1281505947262,34.5189
1281506007262,34.5863
1281506067262,34.5870
1281506127262,34.5427
1281506187262,34.5664
1281506247262,34.5322
1281506307262,34.5811
1281506367262,34.6736
1281506427270,34.6841
1281506487270,34.6003
1281506547270,34.5551
1281506607270,34.6646
1281506667270,34.4810
1281506727270,34.5873
1281506787270,34.5693
1281506847270,34.5964
1281506907270,34.5704
1281506967270,34.5419
1281507027270,34.5130
1281507087270,34.6015
1281507147270,34.5351
1281507207270,34.6640
1281507267270,34.5660
1281507327270,34.6142
1281507387270,34.5400
1281507447270,34.6250
1281507507270,34.5831
1281507567270,34.6458
1281507627270,34.6047
1281507687270,34.5783
1281507747270,34.6686
1281507807270,34.4398
1281507867270,34.5500
1281507927270,34.6393
1281507987270,34.6078
1281508047270,34.6028
1281508107270,34.6787
1281508167270,34.5358
1281508227270,34.6690
1281508287270,34.5946
1281508347270,34.6437
1281508407270,34.5787
1281508467270,34.5728
1281508527270,34.6087
1281508587270,34.5866
1281508647270,34.5644
1281508707270,34.4965
1281508767270,34.5721
1281508827270,34.5968
1281508887270,34.5391
1281508947270,34.5450
1281509007270,34.5155
1281509067270,34.5809
1281509127270,34.6058
1281509187270,34.5869
1281509247270,34.6187
1281509307270,34.5806
1281509367270,34.5184
1281509427270,34.5257
1281509487270,34.5880
1281509547270,34.5818
1281509607270,34.4375
1281509667270,34.5982
1281509727270,34.6363
1281509787270,34.5500
1281509847270,34.5550
1281509907270,34.5751
1281509967270,34.5496
1281510027279,34.5869
1281510087279,34.6198
1281510147279,34.5084
1281510207279,34.4973
1281510267279,34.5165
1281510327279,34.5523
1281510387279,34.5643
1281510447279,34.5622
1281510507279,34.4626
1281510567279,34.5288
1281510627279,34.5679
1281510687279,34.6412
1281510747279,34.4042
1281510807279,34.5433
1281510867279,34.5493
1281510927279,34.6556
1281510987279,34.5949
1281511047279,34.6083
1281511107279,34.5330
1281511167279,34.5475
1281511227279,34.5366
1281511287279,34.5210
1281511347279,34.5082
1281511407279,34.5725
1281511467279,34.5371
1281511527279,34.4937
1281511587279,34.4751
1281511647279,34.6126
1281511707279,34.5423
1281511767279,34.4646
1281511827279,34.4834
1281511887279,34.6494
1281511947279,34.5623
1281512007279,34.5197
1281512067279,34.4896
1281512127279,34.5154
1281512187279,34.5395
1281512247279,34.4379
1281512307279,34.5195
1281512367279,34.4325
1281512427279,34.5061
1281512487279,34.4716
1281512547279,34.5265
1281512607279,34.3595
1281512667279,34.5796
1281512727279,34.4415
1281512787279,34.4068
1281512847279,34.3758
1281512907279,34.4927
1281512967279,34.3434
1281513027279,34.4015
1281513087279,34.3123
1281513147279,34.4124
1281513207279,34.4297
1281513267279,34.4028
1281513327279,34.2940
1281513387279,34.3795
1281513447279,34.3982
1281513507279,34.4394
1281513567279,34.4496
1281513627288,34.4610
1281513687288,34.2722
1281513747288,34.4973
1281513807288,34.4008
1281513867288,34.4775
1281513927288,34.4346
1281513987288,34.3802
1281514047288,34.3680
1281514107288,34.3920
1281514167288,34.4181
1281514227288,34.5037
1281514287288,34.4361
1281514347288,34.4057
1281514407288,34.4017
1281514467288,34.3968
1281514527288,34.3481
1281514587288,34.3422
1281514647288,34.4306
1281514707288,34.4425
1281514767288,34.3625
1281514827288,34.4394
1281514887288,34.3542
1281514947288,34.3961
1281515007288,34.3602
1281515067288,34.3213
1281515127288,34.3090
1281515187288,34.3653
1281515247288,34.3858
1281515307288,34.4972
1281515367288,34.4101
1281515427288,34.5249
1281515487288,34.2961
1281515547288,34.2498
1281515607288,34.4201
1281515667288,34.3676
1281515727288,34.3337
1281515787288,34.3690
1281515847288,34.4011
1281515907288,34.3387
1281515967288,34.3686
1281516027288,34.2828
1281516087288,34.3679
1281516147288,35.0206
1281516207288,34.4321
1281516267288,34.4235
1281516327288,34.3050
1281516387288,34.3479
1281516447288,34.3653
1281516507288,34.3112
1281516567288,34.4146
1281516627288,34.3731
1281516687288,34.2680
1281516747288,34.2871
1281516807288,34.3003
1281516867288,34.3014
1281516927288,34.3044
1281516987288,34.3293
1281517047288,34.3233
1281517107288,34.3320
1281517167288,34.3389
1281517227296,34.3905
1281517287296,34.3180
1281517347296,34.3524
1281517407296,34.2791
1281517467296,34.2497
1281517527296,34.3234
1281517587296,34.3206
1281517647296,34.3563
1281517707296,34.2303
1281517767296,34.2978
1281517827296,34.4033
1281517887296,34.2379
1281517947296,34.3131
1281518007296,34.3393
1281518067296,34.3187
1281518127296,34.2135
1281518187296,34.3417
1281518247296,34.4094
1281518307296,34.3525
1281518367296,34.3277
1281518427296,34.3914
1281518487296,34.8737
1281518547296,34.2998
1281518607296,34.3880
1281518667296,34.1866
1281518727296,34.4100
1281518787296,34.3173
1281518847296,34.4120
1281518907296,34.4399
1281518967296,34.3802
1281519027296,34.4637
1281519087296,34.3008
1281519147296,34.4301
1281519207296,34.4350
1281519267296,34.4881
1281519327296,34.3187
1281519387296,34.3987
1281519447296,34.3681
1281519507296,34.3740
1281519567296,34.4464
1281519627296,34.4699
1281519687296,34.4404
1281519747296,34.4779
1281519807296,34.4170
1281519867296,34.4421
1281519927296,34.4363
1281519987296,34.3664
1281520047296,34.3967
1281520107296,34.4997
1281520167296,34.4774
1281520227296,34.5565
1281520287296,34.4629
1281520347296,34.5315
1281520407296,34.5429
1281520467296,34.5959
1281520527296,34.4763
1281520587296,34.4629
1281520647296,34.4871
1281520707296,34.5827
1281520767296,34.5272
1281520827305,34.7183
1281520887305,34.5102
1281520947305,34.5479
1281521007305,34.5210
1281521067305,34.5667
1281521127305,34.5934
1281521187305,34.6026
1281521247305,34.5448
1281521307305,34.4978
1281521367305,34.5581
1281521427305,34.5073
1281521487305,34.6167
1281521547305,34.6612
1281521607305,34.5260
1281521667305,34.4995
1281521727305,34.6536
1281521787305,34.5602
1281521847305,34.5631
1281521907305,34.5042
1281521967305,34.5502
1281522027305,34.5576
1281522087305,34.5280
1281522147305,34.5951
1281522207305,34.6168
1281522267305,34.5348
1281522327305,34.5399
1281522387305,34.4908
1281522447305,34.5960
1281522507305,34.6058
1281522567305,34.4599
1281522627305,34.5447
1281522687305,34.6298
1281522747305,34.5941
1281522807305,34.4545
1281522867305,34.5494
1281522927305,34.5475
1281522987305,34.5981
1281523047305,34.6423
1281523107305,34.5354
1281523167305,34.5215
1281523227305,34.6611
1281523287305,34.6346
1281523347305,34.6476
1281523407305,34.6737
1281523467305,34.6156
1281523527305,34.6176
1281523587305,34.6569
1281523647305,34.9016
1281523707305,34.6005
1281523767305,34.6213
1281523827305,34.6406
1281523887305,34.5647
1281523947305,34.6601
1281524007305,34.5881
1281524067305,34.7002
1281524127305,34.6889
1281524187305,34.6271
1281524247305,34.6038
1281524307305,34.7206
1281524367305,34.6734
1281524427314,34.7176
1281524487314,34.6714
1281524547314,34.6482
1281524607314,34.7198
1281524667314,34.6909
1281524727314,34.6280
1281524787314,34.6927
1281524847314,34.6134
1281524907314,34.7950
1281524967314,34.7467
1281525027314,34.7520
1281525087314,34.7341
1281525147314,34.7930
1281525207314,34.7601
1281525267314,34.7181
1281525327314,34.7730
1281525387314,34.6944
1281525447314,34.8083
1281525507314,34.7299
1281525567314,34.6656
1281525627314,34.5941
1281525687314,34.5634
1281525747314,34.6212
1281525807314,34.6393
1281525867314,34.6494
1281525927314,34.7502
1281525987314,34.7241
1281526047314,34.5900
1281526107314,34.7377
1281526167314,34.7295
1281526227314,34.6512
1281526287314,34.6306
1281526347314,34.7214
1281526407314,34.8216
1281526467314,34.7433
1281526527314,34.7712
1281526587314,34.6805
1281526647314,34.7340
1281526707314,34.6283
1281526767314,34.6732
1281526827314,34.6760
1281526887314,34.7004
1281526947314,34.6530
1281527007314,34.7096
1281527067314,34.7680
1281527127314,34.8214
1281527187314,34.7363
1281527247314,34.7787
1281527307314,34.7881
1281527367314,34.7174
1281527427314,34.6389
1281527487314,34.6744
1281527547314,34.7327
1281527607314,34.8097
1281527667314,34.7316
1281527727314,34.6180
1281527787314,34.7035
1281527847314,34.7944
1281527907314,34.6832
1281527967314,34.7842
1281528027322,34.7601
1281528087322,34.7398
1281528147322,34.8221
1281528207322,34.8126
1281528267322,34.7600
1281528327322,34.8580
1281528387322,34.8231
1281528447322,34.9435
1281528507322,34.8045
1281528567322,34.8513
1281528627322,34.7743
1281528687322,34.8312
1281528747322,34.6931
1281528807322,34.6499
1281528867322,34.6173
1281528927322,34.7828
1281528987322,34.6032
1281529047322,34.5701
1281529107322,34.6782
1281529167322,34.7444
1281529227322,34.6938
1281529287322,34.5667
1281529347322,34.6836
1281529407322,34.6055
1281529467322,34.7485
1281529527322,34.5869
1281529587322,34.5795
1281529647322,34.7615
1281529707322,34.7262
1281529767322,34.7419
1281529827322,34.6688
1281529887322,34.7075
1281529947322,34.6677
1281530007322,34.7051
1281530067322,34.6218
1281530127322,34.6911
1281530187322,34.5959
1281530247322,34.6054
1281530307322,34.7636
1281530367322,34.6548
1281530427322,34.7179
1281530487322,34.7667
1281530547322,34.8130
1281530607322,34.7594
1281530667322,34.7117
1281530727322,34.6863
1281530787322,34.6959
1281530847322,34.7656
1281530907322,34.6438
1281530967322,34.6985
1281531027322,34.7501
1281531087322,34.8068
1281531147322,34.7008
1281531207322,34.8656
1281531267322,34.6549
1281531327322,34.6879
1281531387322,34.7896
1281531447322,34.7307
1281531507322,34.7519
1281531567322,34.7771
1281531627331,34.7667
1281531687331,34.7546
1281531747331,34.7891
1281531807331,34.7839
1281531867331,34.7463
1281531927331,34.8489
1281531987331,34.7902
1281532047331,34.7155
1281532107331,34.7845
1281532167331,34.8077
1281532227331,34.7286
1281532287331,34.8367
1281532347331,34.9300
1281532407331,34.8286
1281532467331,34.7971
1281532527331,34.7694
1281532587331,34.7561
1281532647331,34.7727
1281532707331,34.7402
1281532767331,34.7354
1281532827331,34.7930
1281532887331,34.8202
1281532947331,34.7494
1281533007331,34.7543
1281533067331,34.8649
1281533127331,34.7691
1281533187331,34.8753
1281533247331,34.9474
1281533307331,34.8745
1281533367331,34.9157
1281533427331,34.9087
1281533487331,34.8800
1281533547331,34.9640
1281533607331,34.9425
1281533667331,34.8972
1281533727331,34.8926
1281533787331,34.9503
1281533847331,35.0069
1281533907331,34.9756
1281533967331,34.9103
1281534027331,34.8316
1281534087331,34.9094
1281534147331,35.0076
1281534207331,34.8696
1281534267331,34.9189
1281534327331,34.9309
1281534387331,35.0029
1281534447331,34.9425
1281534507331,35.0753
1281534567331,35.1192
1281534627331,34.9498
1281534687331,35.0203
1281534747331,34.9611
1281534807331,35.1044
1281534867331,34.9548
1281534927331,35.0311
1281534987331,35.0343
1281535047331,35.0052
1281535107331,35.0175
1281535167331,35.0967
1281535227341,34.9632
1281535287341,34.9911
1281535347341,35.1052
1281535407341,35.0919
1281535467341,35.1253
1281535527341,35.0478
1281535587341,34.9479
1281535647341,34.9143
1281535707341,34.9137
1281535767341,35.0456
1281535827341,34.9296
1281535887341,35.0102
1281535947341,34.9663
1281536007341,34.9087
1281536067341,34.9792
1281536127341,35.0436
1281536187341,35.0577
1281536247341,34.9870
1281536307341,34.9918
1281536367341,34.9622
1281536427341,34.9711
1281536487341,34.9558
1281536547341,34.9865
1281536607341,35.0149
1281536667341,34.9695
1281536727341,34.8913
1281536787341,34.9816
1281536847341,34.9243
1281536907341,35.0518
1281536967341,35.0994
1281537027341,35.0024
1281537087341,34.9707
1281537147341,34.9922
1281537207341,35.0352
1281537267341,34.9348
1281537327341,35.0674
1281537387341,35.0356
1281537447341,35.1692
1281537507341,35.0847
1281537567341,35.0104
1281537627341,35.0598
1281537687341,35.1651
1281537747341,35.0769
1281537807341,35.0520
1281537867341,35.1930
1281537927341,35.1474
1281537987341,35.2516
1281538047341,35.1151
1281538107341,35.1687
1281538167341,35.0539
1281538227341,35.1236
1281538287341,35.1102
1281538347341,35.1363
1281538407341,35.1251
1281538467341,35.0868
1281538527341,35.1632
1281538587341,35.1455
1281538647341,35.0645
1281538707341,35.1945
1281538767341,35.1597
1281538827350,35.1224
1281538887350,35.0262
1281538947350,35.2296
1281539007350,35.1093
1281539067350,35.0430
1281539127350,35.1522
1281539187350,35.1117
1281539247350,35.0429
1281539307350,35.2796
1281539367350,35.2033
1281539427350,35.1235
1281539487350,35.2745
1281539547350,35.0511
1281539607350,35.0771
1281539667350,35.1261
1281539727350,35.1574
1281539787350,35.1243
1281539847350,35.2418
1281539907350,35.1821
1281539967350,35.0894
1281540027350,35.0360
1281540087350,35.0221
1281540147350,35.1096
1281540207350,35.0613
1281540267350,34.9993
1281540327350,35.0778
1281540387350,35.1439
1281540447350,35.0993
1281540507350,35.0183
1281540567350,35.1211
1281540627350,34.9626
1281540687350,34.9824
1281540747350,35.0539
1281540807350,34.9991
1281540867350,34.9887
1281540927350,35.0059
1281540987350,35.0173
1281541047350,34.9713
1281541107350,35.0937
1281541167350,35.0252
1281541227350,34.9439
1281541287350,35.0592
1281541347350,35.0846
1281541407350,35.0785
1281541467350,34.9961
1281541527350,34.9862
1281541587350,35.0044
1281541647350,34.9232
1281541707350,35.0044
1281541767350,34.9184
1281541827350,34.9113
1281541887350,34.8770
1281541947350,35.0522
1281542007350,35.0029
1281542067350,34.9881
1281542127350,34.9833
1281542187350,34.9528
1281542247350,35.0308
1281542307350,35.0377
1281542367350,35.0223
1281542427360,35.0742
1281542487360,34.9423
1281542547360,35.0309
1281542607360,35.0279
1281542667360,35.0157
1281542727360,34.9927
1281542787360,35.0461
1281542847360,35.0844
1281542907360,35.0073
1281542967360,34.9177
1281543027360,35.0410
1281543087360,34.9887
1281543147360,35.0752
1281543207360,35.0239
1281543267360,35.0293
1281543327360,35.1985
1281543387360,34.9812
1281543447360,35.0398
1281543507360,35.1036
1281543567360,35.0520
1281543627360,35.1000
1281543687360,34.9772
1281543747360,35.0359
1281543807360,35.0335
1281543867360,35.0100
1281543927360,34.9970
1281543987360,35.0328
1281544047360,35.0517
1281544107360,35.1680
1281544167360,35.0490
1281544227360,35.0015
1281544287360,35.0715
1281544347360,35.0061
1281544407360,35.1138
1281544467360,34.9828
1281544527360,35.1519
1281544587360,34.9852
1281544647360,35.1244
1281544707360,35.0648
1281544767360,34.9667
1281544827360,35.1857
1281544887360,34.9691
1281544947360,34.9320
1281545007360,34.9549
1281545067360,34.9408
1281545127360,35.0123
1281545187360,34.9510
1281545247360,34.9679
1281545307360,34.9777
1281545367360,34.9713
1281545427360,34.9729
1281545487360,34.9927
1281545547360,35.1450
1281545607360,34.9261
1281545667360,34.9470
1281545727360,34.9589
1281545787360,34.8795
1281545847360,34.9771
1281545907360,34.8436
1281545967360,34.9671
1281546027370,34.8982
1281546087370,34.9064
1281546147370,34.9090
1281546207370,34.8933
1281546267370,34.9553
1281546327370,34.8371
1281546387370,34.8638
1281546447370,34.8914
1281546507370,34.8220
1281546567370,34.8703
1281546627370,34.8865
1281546687370,34.8259
1281546747370,34.8511
1281546807370,34.8874
1281546867370,34.8601
1281546927370,34.8800
1281546987370,34.8743
1281547047370,34.9251
1281547107370,34.8032
1281547167370,34.8637
1281547227370,34.7687
1281547287370,34.8654
1281547347370,34.7631
1281547407370,34.7652
1281547467370,34.9023
1281547527370,34.7691
1281547587370,34.7988
1281547647370,34.7751
1281547707370,34.8253
1281547767370,34.6692
1281547827370,34.7539
1281547887370,34.7236
1281547947370,34.7881
1281548007370,34.6948
1281548067370,34.6639
1281548127370,34.7777
1281548187370,34.6949
1281548247370,34.6958
1281548307370,34.7016
1281548367370,34.8245
1281548427370,34.6672
1281548487370,34.7741
1281548547370,34.6627
1281548607370,34.8157
1281548667370,34.7440
1281548727370,34.7004
1281548787370,34.7244
1281548847370,34.7667
1281548907370,34.7649
1281548967370,34.6636
1281549027370,34.7637
1281549087370,34.7946
1281549147370,34.7578
1281549207370,34.6643
1281549267370,34.7244
1281549327370,34.6153
1281549387370,34.8040
1281549447370,34.8199
1281549507370,34.7230
1281549567370,34.7397
1281549627380,34.8191
1281549687380,34.8911
1281549747380,34.7902
1281549807380,34.8045
1281549867380,34.8160
1281549927380,34.7978
1281549987380,34.7556
1281550047380,34.8758
1281550107380,34.7765
1281550167380,34.7722
1281550227380,34.8465
1281550287380,34.7482
1281550347380,34.8833
1281550407380,34.8107
1281550467380,34.7871
1281550527380,34.6917
1281550587380,34.7410
1281550647380,34.7558